Flag for Canada Weather past 2 weeks in Resolute Bay, Nunavut, Canada

Now
9 °F

Snow flurries. Passing clouds.


Feels Like: -12 °F
Forecast: 5 / 17 °F
Wind: 22 mph from Northeast

Location: Resolute

Current Time: May 24, 2015 at 11:00:13 AM

Latest Report: May 24, 2015 at 10:00 AM


Visibility: 15 mi

Pressure: 29.76 "Hg

Humidity: 78%

Dew point: 3 °F

Location of Resolute BayLocation

Historic Weather in Resolute Bay — Graph

°F

Resolute Bay temperature yesterday

Maximum temperature yesterday: 25 °F (at 4:00 AM)
Minimum temperature yesterday: 9 °F (at 2:00 PM)
Average temperature yesterday: 17 °F

Past Weeks' High & Low Weather Summary

 TemperatureHumidityPressure
High30 °F (May 20, 7:00 PM)100% (May 20, 6:00 PM)30.40 "Hg (May 20, 6:00 PM)
Low0 °F (May 16, 12:00 AM)71% (May 16, 2:00 AM)29.51 "Hg (May 23, 8:00 AM)
Average11 °F84%29.98 "Hg
* Reported May 9 10:00 AM — May 24 10:00 AM, Resolute Bay, Weather by CustomWeather, © 2015

Note: Actual official high and low records may vary slightly from our data, if they occured in-between our weather recording intervals... More about our weather records

Advertising

Resolute Bay weather history for previous 24 hours

 ConditionsComfort  
Time TempWeatherWind HumidityBarometerVisibility
10:00 AM
Sun, May 24
9 °FSnow flurries. Passing clouds.22 mph78%29.76 "Hg15 mi
9:00 AM7 °FSnow flurries. Low level haze.22 mph78%29.75 "Hg15 mi
8:00 AM7 °FSnow flurries. Low level haze.23 mph78%29.75 "Hg15 mi
7:00 AM7 °FSnow flurries. Low level haze.23 mph78%29.73 "Hg15 mi
6:00 AM9 °FSnow flurries. Low level haze.23 mph78%29.71 "Hg8 mi
5:50 AM9 °FScattered clouds.25 mph85%29.71 "Hg1 mi
5:00 AM9 °FSnow flurries. Overcast.23 mph85%29.71 "Hg1 mi
4:00 AM3 °FSnow flurries. Passing clouds.12 mph85%29.73 "Hg12 mi
3:00 AM5 °FLight snow. Scattered clouds.13 mph85%29.74 "Hg15 mi
2:00 AM7 °FLight snow. Partly sunny.15 mph92%29.74 "Hg10 mi
1:00 AM7 °FIce fog.13 mph85%29.75 "Hg3 mi
12:00 AM9 °FIce fog.22 mph85%29.73 "Hg1 mi
11:00 PM
Sat, May 23
9 °FScattered clouds.20 mph85%29.74 "Hg12 mi
10:00 PM9 °FLow level haze.21 mph85%29.74 "Hg12 mi
9:00 PM10 °FLow level haze.20 mph79%29.75 "Hg15 mi
8:00 PM10 °FLow level haze.22 mph79%29.75 "Hg15 mi
7:00 PM10 °FLow level haze.28 mph79%29.75 "Hg13 mi
6:00 PM10 °FLow level haze.28 mph79%29.74 "Hg10 mi
5:00 PM10 °FSnow flurries. Low level haze.31 mph79%29.73 "Hg10 mi
4:00 PM10 °FSnow flurries. Passing clouds.28 mph79%29.72 "Hg11 mi
3:00 PM9 °FLow level haze.30 mph85%29.69 "Hg2 mi
2:00 PM9 °FLow level haze.31 mph78%29.67 "Hg2 mi
1:00 PM10 °FLow level haze.35 mph85%29.62 "Hg2 mi
12:00 PM12 °FLight snow. Low level haze.33 mph85%29.58 "Hg2 mi
11:00 AM18 °FLight snow. Overcast.32 mph86%29.55 "Hg2 mi
Weather by CustomWeather, © 2015

See weather overviewHow to use our weather pages